"Pseudo-MPEC" for ZTF00O9

Created 2018 Jun 19 10:32:04 UT using Find_Orb

Click here for an explanation of pseudo-MPECs

 
 Astrometry: 
     ZTF00O9 tC2018 06 09Q3Astrometryt5@FN'N_#LL;p5DUd[wA*qH[.XGv,\p,1w[pT-CpI41
     ZTF00O9 tC2018 06 09X2n38YHi3js*lUGUgnQtQ!y;2SI/#[BrH4+p$:w-,ItrGH#HN?!DI41
     ZTF00O9 tC2018 06 09+/m;2(]^PKiOa;'dgga_?cbg8[C\gR)(de?I;jlot.0UL2B9*^SII41
     ZTF00O9 tC2018 06 09Gok9Q4Of2*w?Slcb].rlZ_5MiMmtP84'L=ylPSvMr*t5*\M8.?LGI41
     ZTF00O9 tC2018 06 09.y7[^VVvD7ajnkCj?oNm*XOWJ7Qv__vPAV4QfduWf6GZ(D$!m-nwI41
     ZTF00O9 tC2018 06 09ew/jh`fMEWfLEql/FIO]Jc?HBt;OB9ns^ab%iauNHFy:/F_]hH7DI41
     ZTF00O9 tC2018 06 09PRsrEhEGL,c+OK'PSOPRC_xax[*!7AEAM?9M-^N3E8sN=$J)TLnUI41
     ZTF00O9 tC2018 06 094ljrm\m9#@XqG?/v,.h%]_%a/.pe5d@#Veu$Gh=$bOu0H_`Tm(4PI41
     ZTF00O9 tC2018 06 09gmlvVbak\H6GC:H1WM`].;wc.%Q9lD+BTG^y'@G=AjXCUiI)*%f8I41
     ZTF00O9 tC2018 06 09@U)C,Bj+M2_tp9!j`r1Q*.,NXiX70pXNaq2)aq0N1^DJ9501;/DAI41
     ZTF00O9 tC2018 06 09kX!Lj)RQ!?4jDj!\iredacted;%uXj-X+#AaGb-#ubOel\qGU+=EI41
     ZTF00O9 tC2018 06 09*b!@Q/p#AVcq'%$^ggfYI]Z$Bw$_%G6+=yV@uf^][=b?),^b0uvhI41
     ZTF00O9 tC2018 06 09qslxYKyIW#g6xS666qSRjq[P/w:*s]GOTZ!-]2#`y98,)Nv()DStI41
     ZTF00O9 tC2018 06 09=iGiL#jUWJ0dbBgHuZ;[ciXcK;aYY6vu%w?Q!c,24=wv9xiymJb]I41
     ZTF00O9 tC2018 06 09\bwguW#K,\I%3Jit\W73-*,_s+SDGjZMRXo(5LSu/!vjp=GaPTl\I41
     ZTF00O9 tC2018 06 099eAFci6Dpieqk8Jf!'Aw-1nJ2UU@Gk4ggZPVqNL:*8eu*5+p]($II41
     ZTF00O9 tC2018 06 11v(5,7V-)jtpJKuSR5^D3(jO3`gpjFG%R8[`AKZkP_KK9X;Q;d++:I41
     ZTF00O9 tC2018 06 11rl[h0K51PgJf'E7bkA!GntbEQ#06c$./9w?df+nS/Z[.LwyGRpnGI41
     ZTF00O9 tC2018 06 11jVlA4WwZ@,s=%7]d,jsf%\l[:UQ.v?HqS%)*_IjY@op#4VmaCsCiI41
     ZTF00O9 tC2018 06 11OY)*08``1/XdhaHM08`Pa1-Og7dMZT#97a$OHd`1B$y]mrAw4R*cI41
     ZTF00O9 tC2018 06 11s_825F5(]w`gyK'dG,=+fCR_dPsp4\jssee7\`(O.eLoR%t4iu@,I41
     ZTF00O9 tC2018 06 11`*3yH=r?Q/c%E?'n4lu]yW3DS-P3G4G]=?I(e((dG.k;w7jZjklWI41
     ZTF00O9 tC2018 06 125y?2fT3g7*,mSi2[qv\ZAxW2B7W3]4\-BosP\`AfF4tiFUav8uqjI41
     ZTF00O9 tC2018 06 12R)2C`'Oc\x2/NHIIio]c9)rTY0OPT[4A$tu_#w#_PinX8=([geDII41
     ZTF00O9 tC2018 06 12Z\'c3[DGVuQy)?^Yb-kT$s5k9YKv_xWHelFfIIbTe;]^Sp`bUe5jI41
     ZTF00O9 tC2018 06 120($6xTuQ1x#D)GE[f`rJ9i%T+Z?t$)W\?U6o,!G#YE,_m+tYkm^^I41
     ZTF00O9 tC2018 06 12\c8Aw1;U;L84(N]h*^kc*QHw\w0Mjnf1$Gb6+iVsK^19ho_Qy6TPI41
     ZTF00O9 tC2018 06 12sQau/f!uE]5rU@a1mfJ$ZlN?D'URXN]s)X(o3#n5;)-pII\qi`OII41
     ZTF00O9 tC2018 06 12R#hP_x(=L?6/QrYdPMykWa;ZdQQS7[#j8EtwCW:Jv*YN#88S@lxwI41
     ZTF00O9 tC2018 06 12S9WqEcJ\x'6M!4pX(@.3T\jFOCfAucN4uE38IJ6QP$+nN=wId#b.I41
     ZTF00O9 tC2018 06 12Ik+jfSnn(m(t=R0n\kLB__6I?T\b*Mmt:s'bBdVJ^sVIA8:NEOCPI41

Station data:
(I41) Palomar Mountain--ZTF  (N33.357340 W116.859780)  US/California. 1.2-m
   f/2.44 Oschin Schmidt + CCD.

Orbital elements:  ZTF00O9
   Perihelion 2018 Mar 29.375726 +/- 0.0986 TT =  9:01:02 (JD 2458206.875726)
Epoch 2018 Jun 12.0 TT = JDT 2458281.5   Earth MOID: 0.0145   Ve: 0.0603
M  77.74293 +/- 0.22                (J2000 ecliptic)          AutoNEOCP
n   1.04179147 +/- 0.00162          Peri.   56.67901 +/- 0.10
a   0.96371551 +/- 0.000997         Node    79.53419 +/- 0.0013
e   0.4124148 +/- 0.000738          Incl.   32.05091 +/- 0.09
P   0.95/345.55d           H 25.6   G  0.15   U  8.4  
q 0.56626488 +/- 0.000123    Q 1.36116614 +/- 0.00212
From 31 observations 2018 June 9-12; mean residual 1".73
Residuals in arcseconds: 
180609 I41  3.5+  3.2+    180609 I41  .51-  .59-    180612 I41  .32-  .56-    
180609 I41  1.2+  2.1+    180609 I41  .80+  1.4-    180612 I41  .33+  1.5+    
180609 I41  .72-  .66-    180609 I41  .24-  1.6+    180612 I41  1.3+  2.4+    
180609 I41  .79+  1.9+    180609 I41  .98-  2.1-    180612 I41  .95-  1.3-    
180609 I41  2.3-  3.3-    180609 I41  .04-  .70+    180612 I41  1.1-  1.9-    
180609 I41  .52-  .62+    180611 I41  .16+  .82-    180612 I41  1.3+  2.5+    
180609 I41  .17+  1.7+    180611 I41  2.5+  5.5+    180612 I41  1.1-  1.5-    
180609 I41  1.2-  2.5-    180611 I41  1.4-  3.6-    180612 I41  .94-  1.1-    
180609 I41  1.0+  1.8+    180611 I41  1.2+  1.8+    180612 I41  .11+  .39+    
180609 I41  .57-  2.2-    180611 I41  .55-  3.3-    
180609 I41  1.2-  1.7-    180611 I41  .18-  .43+    

Ephemerides (geocentric):
Date (UTC) HH   RA              Dec         delta   r     elong  mag " sig PA
---- -- -- --  -------------   -----------  ------ ------ -----  --- ---- ---
2018 06 19 11  14 03 19.007   -52 15 51.83  .10790 1.0864 128.4 22.7  .27  39
2018 06 19 12  14 03 12.494   -52 17 27.43  .10836 1.0867 128.4 22.7  .28  39
2018 06 19 13  14 03 06.043   -52 19 02.16  .10883 1.0870 128.3 22.7  .28  40
2018 06 19 14  14 02 59.654   -52 20 36.04  .10929 1.0872 128.3 22.7  .28  40
2018 06 19 15  14 02 53.327   -52 22 09.09  .10976 1.0875 128.2 22.7  .28  41
2018 06 19 16  14 02 47.061   -52 23 41.31  .11022 1.0877 128.2 22.7  .28  42
2018 06 19 17  14 02 40.855   -52 25 12.71  .11069 1.0880 128.1 22.7  .28  42
2018 06 19 18  14 02 34.708   -52 26 43.30  .11115 1.0882 128.1 22.8  .28  43
2018 06 19 19  14 02 28.621   -52 28 13.10  .11162 1.0885 128.0 22.8  .28  44
2018 06 19 20  14 02 22.593   -52 29 42.11  .11208 1.0887 128.0 22.8  .28  44
2018 06 19 21  14 02 16.622   -52 31 10.34  .11255 1.0890 128.0 22.8  .29  45
2018 06 19 22  14 02 10.709   -52 32 37.81  .11301 1.0892 127.9 22.8  .29  45
2018 06 19 23  14 02 04.852   -52 34 04.53  .11348 1.0895 127.9 22.8  .29  46
2018 06 20 00  14 01 59.052   -52 35 30.49  .11394 1.0897 127.8 22.8  .29  47
2018 06 20 01  14 01 53.307   -52 36 55.72  .11441 1.0900 127.8 22.8  .29  47
2018 06 20 02  14 01 47.618   -52 38 20.22  .11487 1.0902 127.7 22.8  .29  48
2018 06 20 03  14 01 41.983   -52 39 44.00  .11534 1.0905 127.7 22.8  .30  48
2018 06 20 04  14 01 36.403   -52 41 07.07  .11580 1.0907 127.6 22.9  .30  49
2018 06 20 05  14 01 30.876   -52 42 29.44  .11627 1.0910 127.6 22.9  .30  50
2018 06 20 06  14 01 25.402   -52 43 51.11  .11673 1.0912 127.6 22.9  .30  50
2018 06 20 07  14 01 19.981   -52 45 12.10  .11720 1.0915 127.5 22.9  .30  51
2018 06 20 08  14 01 14.612   -52 46 32.42  .11766 1.0918 127.5 22.9  .30  51
2018 06 20 09  14 01 09.295   -52 47 52.06  .11813 1.0920 127.4 22.9  .31  52
2018 06 20 10  14 01 04.029   -52 49 11.05  .11859 1.0923 127.4 22.9  .31  52
2018 06 20 11  14 00 58.813   -52 50 29.38  .11906 1.0925 127.3 22.9  .31  53
2018 06 20 12  14 00 53.648   -52 51 47.07  .11952 1.0928 127.3 22.9  .31  53
2018 06 20 13  14 00 48.533   -52 53 04.12  .11999 1.0930 127.3 22.9  .31  54
2018 06 20 14  14 00 43.467   -52 54 20.55  .12046 1.0933 127.2 23.0  .32  55
2018 06 20 15  14 00 38.449   -52 55 36.35  .12092 1.0935 127.2 23.0  .32  55
2018 06 20 16  14 00 33.481   -52 56 51.54  .12139 1.0938 127.1 23.0  .32  56
2018 06 20 17  14 00 28.560   -52 58 06.12  .12185 1.0940 127.1 23.0  .32  56
2018 06 20 18  14 00 23.686   -52 59 20.10  .12232 1.0943 127.1 23.0  .33  57
2018 06 20 19  14 00 18.860   -53 00 33.48  .12278 1.0945 127.0 23.0  .33  57
2018 06 20 20  14 00 14.081   -53 01 46.29  .12325 1.0948 127.0 23.0  .33  58
2018 06 20 21  14 00 09.347   -53 02 58.51  .12372 1.0950 126.9 23.0  .33  58
2018 06 20 22  14 00 04.660   -53 04 10.16  .12418 1.0953 126.9 23.0  .33  59
2018 06 20 23  14 00 00.018   -53 05 21.24  .12465 1.0955 126.9 23.0  .34  59
2018 06 21 00  13 59 55.421   -53 06 31.77  .12511 1.0958 126.8 23.0  .34  60
2018 06 21 01  13 59 50.869   -53 07 41.74  .12558 1.0960 126.8 23.1  .34  60
2018 06 21 02  13 59 46.361   -53 08 51.16  .12605 1.0963 126.7 23.1  .34  60
2018 06 21 03  13 59 41.897   -53 10 00.05  .12651 1.0965 126.7 23.1  .35  61
2018 06 21 04  13 59 37.477   -53 11 08.40  .12698 1.0968 126.7 23.1  .35  61
2018 06 21 05  13 59 33.100   -53 12 16.22  .12744 1.0970 126.6 23.1  .35  62
2018 06 21 06  13 59 28.765   -53 13 23.52  .12791 1.0973 126.6 23.1  .35  62
2018 06 21 07  13 59 24.473   -53 14 30.30  .12838 1.0975 126.5 23.1  .36  63
2018 06 21 08  13 59 20.223   -53 15 36.57  .12884 1.0978 126.5 23.1  .36  63
2018 06 21 09  13 59 16.015   -53 16 42.33  .12931 1.0980 126.5 23.1  .36  63
2018 06 21 10  13 59 11.848   -53 17 47.60  .12977 1.0983 126.4 23.1  .37  64